Hourly Weather Rumianek

Today, 23 April, Friday

Time Temperature Precipitation Wind Pressure Humidity
00:00 +1°C° 0 mm 3 mps 757 mmHg 88%
01:00 +1°C° 0 mm 3 mps 757 mmHg 92%
02:00 0°C° 0 mm 3 mps 757 mmHg 93%
03:00 -1°C° 0 mm 4 mps 757 mmHg 95%
04:00 -1°C° 0 mm 4 mps 757 mmHg 97%
05:00 0°C° 0 mm 4 mps 757 mmHg 92%
06:00 +1°C° 0 mm 5 mps 758 mmHg 88%
07:00 +2°C° 0 mm 5 mps 758 mmHg 84%
08:00 +3°C° 0.1 mm 5 mps 758 mmHg 76%
09:00 +6°C° 0.1 mm 5 mps 758 mmHg 67%
10:00 +7°C° 0.1 mm 6 mps 759 mmHg 59%
11:00 +7°C° 0.2 mm 6 mps 759 mmHg 61%
12:00 +7°C° 0.2 mm 6 mps 759 mmHg 63%
13:00 +7°C° 0.2 mm 6 mps 759 mmHg 65%
14:00 +7°C° 0.3 mm 6 mps 759 mmHg 63%
15:00 +8°C° 0.3 mm 5 mps 759 mmHg 61%
16:00 +8°C° 0.3 mm 5 mps 759 mmHg 59%
17:00 +7°C° 0.2 mm 4 mps 759 mmHg 62%
18:00 +7°C° 0.2 mm 3 mps 759 mmHg 65%
19:00 +5°C° 0.2 mm 3 mps 759 mmHg 69%
20:00 +4°C° 0 mm 3 mps 759 mmHg 71%
21:00 +4°C° 0 mm 2 mps 759 mmHg 73%
22:00 +4°C° 0 mm 2 mps 759 mmHg 75%
23:00 +3°C° 0 mm 2 mps 759 mmHg 77%

Tomorrow, 24 April, Saturday

Time Temperature Precipitation Wind Pressure Humidity
00:00 +3°C° 0 mm 2 mps 759 mmHg 80%
01:00 +1°C° 0 mm 3 mps 759 mmHg 82%
02:00 +1°C° 0 mm 3 mps 759 mmHg 85%
03:00 0°C° 0 mm 3 mps 759 mmHg 88%
04:00 0°C° 0 mm 3 mps 759 mmHg 91%
05:00 +1°C° 0 mm 3 mps 759 mmHg 87%
06:00 +2°C° 0 mm 3 mps 759 mmHg 83%
07:00 +3°C° 0 mm 3 mps 760 mmHg 79%
08:00 +5°C° 0 mm 3 mps 760 mmHg 73%
09:00 +7°C° 0 mm 3 mps 759 mmHg 67%
10:00 +8°C° 0 mm 4 mps 759 mmHg 61%
11:00 +8°C° 0.2 mm 4 mps 759 mmHg 60%
12:00 +8°C° 0.2 mm 4 mps 759 mmHg 60%
13:00 +8°C° 0.2 mm 5 mps 759 mmHg 59%
14:00 +8°C° 0 mm 5 mps 758 mmHg 57%
15:00 +8°C° 0 mm 5 mps 758 mmHg 54%
16:00 +9°C° 0 mm 5 mps 758 mmHg 52%
17:00 +8°C° 0 mm 5 mps 758 mmHg 55%
18:00 +6°C° 0 mm 4 mps 759 mmHg 59%
19:00 +5°C° 0 mm 4 mps 759 mmHg 62%
20:00 +4°C° 0 mm 3 mps 759 mmHg 63%
21:00 +3°C° 0 mm 3 mps 759 mmHg 63%
22:00 +1°C° 0 mm 3 mps 760 mmHg 64%
23:00 +1°C° 0 mm 2 mps 760 mmHg 66%

Day after tomorrow, 25 April, Sunday

Time Temperature Precipitation Wind Pressure Humidity
00:00 +1°C° 0 mm 2 mps 760 mmHg 68%
01:00 -1°C° 0 mm 2 mps 760 mmHg 70%
02:00 -1°C° 0 mm 2 mps 760 mmHg 71%
03:00 -2°C° 0 mm 2 mps 760 mmHg 71%
04:00 -2°C° 0 mm 2 mps 760 mmHg 71%
05:00 -1°C° 0 mm 3 mps 760 mmHg 68%
06:00 +1°C° 0 mm 3 mps 760 mmHg 64%
07:00 +2°C° 0 mm 3 mps 760 mmHg 60%
08:00 +4°C° 0 mm 4 mps 760 mmHg 52%
09:00 +6°C° 0 mm 4 mps 760 mmHg 43%
10:00 +7°C° 0 mm 5 mps 760 mmHg 34%
11:00 +8°C° 0 mm 5 mps 760 mmHg 33%
12:00 +8°C° 0 mm 5 mps 759 mmHg 33%
13:00 +9°C° 0 mm 5 mps 759 mmHg 32%
14:00 +8°C° 0 mm 5 mps 759 mmHg 35%
15:00 +8°C° 0 mm 5 mps 759 mmHg 38%
16:00 +8°C° 0 mm 5 mps 759 mmHg 41%
17:00 +7°C° 0 mm 4 mps 759 mmHg 47%
18:00 +5°C° 0 mm 3 mps 759 mmHg 53%
19:00 +5°C° 0 mm 2 mps 759 mmHg 58%
20:00 +4°C° 0 mm 2 mps 759 mmHg 60%
21:00 +3°C° 0 mm 2 mps 759 mmHg 62%
22:00 +2°C° 0 mm 2 mps 759 mmHg 64%
23:00 +2°C° 0 mm 2 mps 759 mmHg 66%

26 April, Monday

Time Temperature Precipitation Wind Pressure Humidity
00:00 +1°C° 0 mm 2 mps 759 mmHg 67%
01:00 +1°C° 0 mm 2 mps 758 mmHg 69%
02:00 +1°C° 0 mm 2 mps 758 mmHg 70%
03:00 +1°C° 0 mm 2 mps 758 mmHg 72%
04:00 -1°C° 0 mm 2 mps 758 mmHg 74%
05:00 +2°C° 0 mm 2 mps 758 mmHg 70%
06:00 +3°C° 0 mm 2 mps 757 mmHg 66%
07:00 +4°C° 0 mm 2 mps 757 mmHg 62%
08:00 +6°C° 0 mm 2 mps 757 mmHg 55%
09:00 +7°C° 0 mm 2 mps 757 mmHg 49%
10:00 +8°C° 0 mm 2 mps 757 mmHg 42%
11:00 +9°C° 0 mm 2 mps 756 mmHg 39%
12:00 +10°C° 0 mm 2 mps 756 mmHg 36%
13:00 +10°C° 0 mm 2 mps 755 mmHg 33%
14:00 +10°C° 0 mm 2 mps 755 mmHg 33%
15:00 +12°C° 0 mm 2 mps 755 mmHg 33%
16:00 +12°C° 0 mm 2 mps 754 mmHg 33%
17:00 +9°C° 0 mm 2 mps 754 mmHg 38%
18:00 +9°C° 0 mm 1 mps 754 mmHg 44%
19:00 +7°C° 0 mm 1 mps 754 mmHg 50%
20:00 +5°C° 0 mm 2 mps 754 mmHg 53%
21:00 +4°C° 0 mm 2 mps 754 mmHg 55%
22:00 +2°C° 0 mm 3 mps 754 mmHg 57%
23:00 +1°C° 0 mm 3 mps 754 mmHg 58%

27 April, Tuesday

Time Temperature Precipitation Wind Pressure Humidity
00:00 +1°C° 0 mm 3 mps 754 mmHg 59%
01:00 0°C° 0 mm 3 mps 753 mmHg 60%
02:00 0°C° 0 mm 3 mps 753 mmHg 61%
03:00 0°C° 0 mm 3 mps 753 mmHg 63%
04:00 0°C° 0 mm 3 mps 752 mmHg 64%
05:00 +1°C° 0 mm 3 mps 752 mmHg 62%
06:00 +2°C° 0 mm 3 mps 752 mmHg 60%
07:00 +3°C° 0 mm 3 mps 752 mmHg 58%
08:00 +5°C° 0 mm 3 mps 752 mmHg 54%
09:00 +7°C° 0 mm 4 mps 751 mmHg 50%
10:00 +8°C° 0 mm 4 mps 751 mmHg 46%
11:00 +10°C° 0 mm 4 mps 751 mmHg 44%
12:00 +10°C° 0 mm 4 mps 750 mmHg 42%
13:00 +11°C° 0 mm 4 mps 750 mmHg 41%
14:00 +11°C° 0 mm 4 mps 749 mmHg 44%
15:00 +11°C° 0 mm 4 mps 749 mmHg 46%
16:00 +11°C° 0 mm 4 mps 748 mmHg 49%
17:00 +10°C° 0 mm 4 mps 748 mmHg 53%
18:00 +8°C° 0 mm 4 mps 748 mmHg 58%
19:00 +7°C° 0 mm 4 mps 747 mmHg 63%
20:00 +6°C° 0 mm 4 mps 747 mmHg 63%
21:00 +6°C° 0 mm 4 mps 747 mmHg 63%
22:00 +6°C° 0 mm 4 mps 746 mmHg 63%
23:00 +5°C° 0 mm 3 mps 746 mmHg 64%

28 April, Wednesday

Time Temperature Precipitation Wind Pressure Humidity
00:00 +5°C° 0 mm 3 mps 746 mmHg 65%
01:00 +5°C° 0 mm 3 mps 746 mmHg 66%
02:00 +5°C° 0 mm 3 mps 745 mmHg 67%
03:00 +4°C° 0 mm 3 mps 745 mmHg 69%
04:00 +4°C° 0 mm 3 mps 745 mmHg 70%
05:00 +5°C° 0 mm 3 mps 745 mmHg 71%
06:00 +5°C° 0 mm 3 mps 745 mmHg 72%
07:00 +5°C° 0 mm 3 mps 745 mmHg 73%
08:00 +7°C° 0 mm 3 mps 745 mmHg 71%
09:00 +9°C° 0 mm 3 mps 745 mmHg 70%
10:00 +10°C° 0 mm 4 mps 745 mmHg 69%
11:00 +10°C° 0 mm 4 mps 745 mmHg 68%
12:00 +10°C° 0 mm 4 mps 745 mmHg 67%
13:00 +10°C° 0 mm 4 mps 745 mmHg 66%
14:00 +10°C° 0 mm 4 mps 745 mmHg 67%
15:00 +10°C° 0 mm 4 mps 745 mmHg 68%
16:00 +10°C° 0 mm 4 mps 745 mmHg 68%
17:00 +9°C° 0 mm 3 mps 745 mmHg 73%
18:00 +8°C° 0 mm 3 mps 745 mmHg 78%
19:00 +8°C° 0 mm 2 mps 745 mmHg 83%
20:00 +7°C° 0 mm 2 mps 745 mmHg 84%
21:00 +8°C° 0 mm 1 mps 745 mmHg 86%
22:00 +7°C° 0 mm 1 mps 745 mmHg 87%
23:00 +7°C° 0 mm 1 mps 745 mmHg 89%
Show more